{"data":{"norad_id":62085,"epoch":"2026-05-25T04:04:21.255744Z","epoch_age_seconds":67157,"freshness":"FRESH","line1":"1 62085U 24219E   26145.16969046  .00000863  00000+0  12594-3 0  9998","line2":"2 62085  98.0046 309.1419 0001936  31.2121 328.9204 14.78272619 80605","mean_motion":14.78272619,"eccentricity":0.0001936,"inclination_deg":98.0046,"raan_deg":309.1419,"arg_perigee_deg":31.2121,"mean_anomaly_deg":328.9204,"bstar":0.00012594,"rev_number":8060,"period_min":97.410990469005,"perigee_km":633.42424474602,"apogee_km":636.13964696186,"semimajor_km":7012.9189458539,"source":"CELESTRAK","updated_at":"2026-05-25T13:38:02.758104Z"}}